Flag for Germany Weather past 2 weeks in Waiblingen, Baden-Württemberg, Germany

Now
59 °F

Sprinkles. Passing clouds.


Feels Like: 59 °F
Forecast: 39 / 56 °F
Wind: 2 mph from Southwest

Location: Stuttgart-Echterdingen

Current Time: Sep 21, 2014 at 8:09:52 AM

Latest Report: Sep 21, 2014 at 7:20 AM


Visibility: N/A

Pressure: 29.98 "Hg

Humidity: 94%

Dew point: 57 °F

Location of WaiblingenLocation

Historic Weather in Waiblingen — Graph

°F

Waiblingen temperature yesterday

Maximum temperature yesterday: 73 °F (at 1:20 PM)
Minimum temperature yesterday: 59 °F (at 2:20 AM)
Average temperature yesterday: 64 °F

Past Weeks' High & Low Weather Summary

 TemperatureHumidityPressure
High77 °F (Sep 6, 2:50 PM)100% (Sep 6, 6:20 AM)30.15 "Hg (Sep 6, 6:20 AM)
Low52 °F (Sep 11, 1:50 AM)52% (Sep 10, 6:20 PM)29.89 "Hg (Sep 17, 2:50 PM)
Average62 °F84%30.01 "Hg
* Reported Sep 6 6:20 AM — Sep 21 6:50 AM, Waiblingen, Weather by CustomWeather, © 2014

Note: Actual official high and low records may vary slightly from our data, if they occured in-between our weather recording intervals... More about our weather records

Advertising

Waiblingen weather history for previous 24 hours

 ConditionsComfort  
Time TempWeatherWind HumidityBarometerVisibility
6:50 AM
Sep 21
61 °FSprinkles. Passing clouds.3 mph88%29.98 "HgN/A
6:20 AM59 °FPassing clouds.5 mph100%29.98 "HgN/A
5:50 AM59 °FPartly cloudy.2 mph100%29.98 "HgN/A
5:20 AM59 °FPartly cloudy.2 mph100%30.01 "HgN/A
4:50 AM59 °FPartly cloudy.3 mph100%30.01 "HgN/A
4:20 AM61 °FSprinkles. Passing clouds.2 mph94%30.01 "HgN/A
3:50 AM61 °FRain showers. Partly cloudy.5 mph94%30.01 "HgN/A
3:20 AM57 °FThundershowers. Fog.1 mph100%30.01 "HgN/A
2:50 AM57 °FPassing clouds.6 mph100%30.01 "HgN/A
2:20 AM57 °FFog.2 mph94%30.01 "HgN/A
1:50 AM59 °FFog.2 mph94%30.01 "HgN/A
1:20 AM57 °FFog.1 mph94%30.01 "HgN/A
12:50 AM59 °FFog.2 mph94%30.01 "HgN/A
12:20 AM59 °FPassing clouds.5 mph94%30.01 "HgN/A
11:50 PM
Sep 20
59 °FPassing clouds.1 mph100%30.01 "HgN/A
11:20 PM59 °FPassing clouds.1 mph94%30.04 "HgN/A
10:20 PM61 °FClear.2 mph94%30.04 "Hg10 mi
9:50 PM61 °FClear.2 mph94%30.04 "Hg10 mi
9:20 PM61 °FPassing clouds.5 mph94%30.01 "HgN/A
8:50 PM64 °FPassing clouds.3 mph88%30.01 "HgN/A
8:20 PM64 °FPassing clouds.1 mph88%30.01 "HgN/A
7:50 PM66 °FPassing clouds.2 mph83%30.01 "HgN/A
3:20 PM68 °FThundershowers. Scattered clouds.2 mph83%30.01 "HgN/A
2:50 PM68 °FThundershowers. Scattered clouds.5 mph83%30.01 "HgN/A
2:20 PM68 °FScattered showers. Partly sunny.1 mph78%30.01 "HgN/A
1:50 PM70 °FSprinkles. Partly sunny.3 mph69%30.01 "HgN/A
1:20 PM73 °FScattered showers. Scattered clouds.3 mph65%30.01 "HgN/A
12:50 PM72 °FPassing clouds.3 mph65%30.01 "HgN/A
12:20 PM72 °FPassing clouds.2 mph69%30.01 "HgN/A
11:50 AM70 °FPassing clouds.3 mph73%30.01 "HgN/A
11:20 AM68 °FPassing clouds.3 mph73%30.01 "HgN/A
10:50 AM66 °FPassing clouds.5 mph83%30.01 "HgN/A
10:20 AM64 °FScattered clouds.3 mph83%30.01 "HgN/A
9:50 AM64 °FScattered clouds.2 mph83%30.01 "HgN/A
9:20 AM63 °FSprinkles. Scattered clouds.1 mph88%30.01 "HgN/A
8:50 AM63 °FSprinkles. Fog.1 mph88%30.01 "HgN/A
8:20 AM61 °FFog.1 mph100%30.01 "HgN/A
Weather by CustomWeather, © 2014

See weather overviewHow to use our weather pages